Date,TemperatureHighF,TemperatureAvgF,TemperatureLowF,DewpointHighF,DewpointAvgF,DewpointLowF,HumidityHigh,HumidityAvg,HumidityLow,PressureMaxIn,PressureMinIn,WindSpeedMaxMPH,WindSpeedAvgMPH,GustSpeedMaxMPH,PrecipitationSumIn
2013-5-1,41.3,38.0,34.3,38.9,35.8,30.0,96,91,73,29.59,29.39,0,0,0,0.00
2013-5-2,39.0,38.6,38.3,37.3,36.8,36.4,93,93,92,29.56,29.55,0,0,0,0.00
2013-5-6,44.0,41.2,37.5,33.7,31.4,28.5,82,68,57,30.15,0.00,0,0,0,0.00
2013-5-7,43.2,39.4,36.4,33.3,31.7,29.3,84,74,62,30.17,30.14,0,0,0,0.00
2013-5-8,44.5,39.3,36.1,37.1,34.7,31.9,88,83,69,30.17,30.10,0,0,0,0.00
2013-5-9,44.0,40.2,37.3,38.5,36.3,33.8,92,85,79,30.15,30.09,0,0,0,0.00
2013-5-10,54.2,44.2,37.2,39.4,35.7,30.3,91,73,41,30.10,29.83,0,0,0,0.00
2013-5-11,46.1,43.0,41.1,43.5,41.2,38.7,97,93,85,29.83,29.42,0,0,0,0.00
2013-5-12,51.8,45.8,42.0,44.7,41.3,37.1,96,84,65,29.43,29.38,0,0,0,0.02
2013-5-13,56.4,46.9,38.2,42.3,36.7,-99.5,91,69,34,29.42,29.34,15,0,0,0.00
2013-5-14,52.4,43.0,35.1,31.9,25.0,17.2,75,50,27,29.60,29.42,0,0,0,0.00
2013-5-15,49.2,40.4,34.9,38.2,31.8,22.6,94,72,39,29.61,29.48,0,0,0,0.00
2013-5-16,43.0,40.0,37.4,40.3,38.2,35.2,97,93,86,29.48,29.29,0,0,0,0.00
2013-5-17,46.2,40.3,33.1,36.2,31.4,22.2,92,71,50,29.54,29.32,0,0,0,0.00
2013-5-18,42.2,36.1,30.4,23.4,16.9,9.8,70,46,28,30.15,29.55,0,0,0,0.00
2013-5-19,50.5,40.3,29.7,32.2,23.4,15.3,79,51,30,30.52,30.15,0,0,0,0.00
2013-5-20,47.7,41.2,33.7,35.4,31.2,26.3,79,67,52,30.55,30.44,0,0,0,0.00
2013-5-21,50.2,45.1,42.3,40.5,37.7,34.5,89,75,61,30.44,30.14,0,0,0,0.00
2013-5-22,50.7,45.1,42.5,44.1,41.7,39.6,92,88,75,30.14,29.99,0,0,0,0.00
2013-5-23,47.3,43.5,41.5,43.5,41.4,40.5,97,92,78,30.03,29.99,0,0,0,0.00
2013-5-24,59.8,50.3,41.5,43.5,41.3,38.8,95,73,49,30.03,29.91,0,0,0,0.00
2013-5-25,47.2,42.9,39.9,41.7,39.8,37.9,96,88,78,29.91,29.80,0,0,0,0.00
2013-5-26,44.2,41.9,40.0,42.9,40.5,38.0,97,94,88,29.80,29.71,0,0,0,0.00
2013-5-27,45.1,42.9,41.8,43.2,41.8,41.0,97,96,91,29.72,29.67,0,0,0,0.00
2013-5-28,59.9,49.8,41.5,48.1,42.9,39.1,96,78,58,29.68,29.56,0,0,0,0.00
2013-5-29,62.8,53.8,45.1,46.5,42.7,37.4,88,67,45,29.68,29.55,0,0,0,0.00
2013-5-30,61.3,48.9,42.9,44.0,41.9,40.0,93,77,50,29.94,29.68,0,0,0,0.00
2013-5-31,49.2,45.5,42.2,44.5,42.8,41.3,97,90,79,30.08,29.94,0,0,0,0.00